Location: Piotrkow Trybunalski
(51.4000°N, 19.6830°E)
Time: 15:49:09
(UTC+01:00)

ISS - Pass Details

Date: 31 January 2020
Orbit: 415 x 422 km, 51.6° (Epoch: 26 February)

Event Time Altitude Azimuth Distance (km) Brightness Sun altitude
Rises 17:40:06 0° 272° (W) 2,380 1.7 -11.3°
Reaches altitude 10° 17:42:12 10° 273° (W) 1,514 0.4 -11.6°
Maximum altitude 17:45:37 84° 3° (N) 431 -3.8 -12.1°
Enters shadow 17:47:44 21° 90° (E) 1,004 -2.5 -12.5°
